Time,TemperatureF,DewpointF,PressureIn,WindDirection,WindDirectionDegrees,WindSpeedMPH,WindSpeedGustMPH,Humidity,HourlyPrecipIn,Conditions,Clouds,dailyrainin,SoftwareType,DateUTC
2013-05-29 00:01:00,61.3,49.1,29.81,SE,128,0.0,0.0,64,0.00,,SCT100,0.00,VWS V14.01,2013-05-29 07:01:00,
2013-05-29 00:06:00,61.2,48.9,29.81,SE,128,0.0,0.0,64,0.00,,SCT100,0.00,VWS V14.01,2013-05-29 07:06:00,
2013-05-29 00:11:00,61.2,49.3,29.81,SE,128,0.0,0.0,65,0.00,,SCT100,0.00,VWS V14.01,2013-05-29 07:11:00,
2013-05-29 00:16:00,61.0,48.7,29.81,SE,128,0.0,0.0,64,0.00,,SCT100,0.00,VWS V14.01,2013-05-29 07:16:00,
2013-05-29 00:21:00,61.0,49.2,29.81,SE,128,0.0,0.0,65,0.00,,SCT100,0.00,VWS V14.01,2013-05-29 07:21:00,
2013-05-29 00:26:00,61.0,49.2,29.81,SE,128,0.0,3.1,65,0.00,,SCT100,0.00,VWS V14.01,2013-05-29 07:26:00,
2013-05-29 00:31:00,61.3,49.5,29.81,SE,128,5.4,5.8,65,0.00,,SCT100,0.00,VWS V14.01,2013-05-29 07:31:00,
2013-05-29 00:36:00,61.0,48.7,29.81,SE,127,4.9,6.7,64,0.00,,SCT100,0.00,VWS V14.01,2013-05-29 07:36:00,
2013-05-29 00:41:00,61.0,49.2,29.81,SE,125,4.5,6.7,65,0.00,,SCT100,0.00,VWS V14.01,2013-05-29 07:41:00,
2013-05-29 00:47:00,61.0,49.2,29.81,SE,126,5.8,5.8,65,0.00,,SCT100,0.00,VWS V14.01,2013-05-29 07:47:00,
2013-05-29 00:52:00,61.0,49.2,29.81,ESE,122,4.0,6.7,65,0.00,,SCT100,0.00,VWS V14.01,2013-05-29 07:52:00,
2013-05-29 00:57:00,60.8,49.0,29.81,ESE,123,0.0,0.0,65,0.00,,SCT100,0.00,VWS V14.01,2013-05-29 07:57:00,
2013-05-29 01:02:00,60.6,48.8,29.81,ESE,123,0.0,0.0,65,0.00,,FEW100,0.00,VWS V14.01,2013-05-29 08:02:00,
2013-05-29 01:07:00,60.6,48.8,29.81,ESE,123,2.7,3.6,65,0.00,,FEW100,0.00,VWS V14.01,2013-05-29 08:07:00,
2013-05-29 01:12:00,60.4,49.0,29.81,ESE,123,2.7,4.9,66,0.00,,FEW100,0.00,VWS V14.01,2013-05-29 08:12:00,
2013-05-29 01:17:00,60.4,49.4,29.81,SE,141,6.3,7.8,67,0.00,,FEW100,0.00,VWS V14.01,2013-05-29 08:17:00,
2013-05-29 01:22:00,60.4,49.0,29.81,SE,127,4.0,6.7,66,0.00,,FEW100,0.00,VWS V14.01,2013-05-29 08:22:00,
2013-05-29 01:27:00,60.4,49.0,29.81,SE,126,4.0,5.8,66,0.00,,FEW100,0.00,VWS V14.01,2013-05-29 08:27:00,
2013-05-29 01:32:00,60.4,49.0,29.81,SE,127,6.7,6.7,66,0.00,,FEW100,0.00,VWS V14.01,2013-05-29 08:32:00,
2013-05-29 01:37:00,60.4,48.6,29.81,ESE,107,8.3,9.2,65,0.00,,FEW100,0.00,VWS V14.01,2013-05-29 08:37:00,
2013-05-29 01:42:00,60.6,48.4,29.81,SE,125,8.3,8.3,64,0.00,,FEW100,0.00,VWS V14.01,2013-05-29 08:42:00,
2013-05-29 01:47:00,60.6,48.0,29.81,SE,131,3.6,4.9,63,0.00,,FEW100,0.00,VWS V14.01,2013-05-29 08:47:00,
2013-05-29 01:53:00,60.4,47.4,29.81,SSE,161,3.6,5.4,62,0.00,,FEW100,0.00,VWS V14.01,2013-05-29 08:53:00,
2013-05-29 01:58:00,60.3,46.8,29.81,SSE,161,4.0,11.0,61,0.00,,FEW100,0.00,VWS V14.01,2013-05-29 08:58:00,
2013-05-29 02:03:00,60.1,47.0,29.81,SE,137,4.0,6.9,62,0.00,,BKN120,0.00,VWS V14.01,2013-05-29 09:03:00,
2013-05-29 02:08:00,59.9,46.9,29.81,ESE,109,6.3,6.7,62,0.00,,BKN120,0.00,VWS V14.01,2013-05-29 09:08:00,
2013-05-29 02:13:00,59.5,47.0,29.81,ESE,111,7.8,9.2,63,0.00,,BKN120,0.00,VWS V14.01,2013-05-29 09:13:00,
2013-05-29 02:18:00,59.7,47.1,29.81,SE,131,7.8,9.6,63,0.00,,BKN120,0.00,VWS V14.01,2013-05-29 09:18:00,
2013-05-29 02:23:00,59.7,47.5,29.81,SE,142,7.4,8.3,64,0.00,,BKN120,0.00,VWS V14.01,2013-05-29 09:23:00,
2013-05-29 02:28:00,59.7,47.1,29.81,ESE,116,4.0,11.6,63,0.00,,BKN120,0.00,VWS V14.01,2013-05-29 09:28:00,
2013-05-29 02:33:00,59.7,47.5,29.81,ESE,118,6.9,6.9,64,0.00,,BKN120,0.00,VWS V14.01,2013-05-29 09:33:00,
2013-05-29 02:38:00,59.5,47.4,29.81,South,172,7.4,13.0,64,0.00,,BKN120,0.00,VWS V14.01,2013-05-29 09:38:00,
2013-05-29 02:43:00,59.4,47.2,29.81,SE,135,8.3,11.0,64,0.00,,BKN120,0.00,VWS V14.01,2013-05-29 09:43:00,
2013-05-29 02:48:00,59.4,47.2,29.81,ESE,103,7.8,10.5,64,0.00,,BKN120,0.00,VWS V14.01,2013-05-29 09:48:00,
2013-05-29 02:53:00,59.5,47.4,29.81,SE,124,7.8,8.7,64,0.00,,BKN120,0.00,VWS V14.01,2013-05-29 09:53:00,
2013-05-29 02:59:00,59.7,47.5,29.81,SE,137,4.0,4.9,64,0.00,,BKN120,0.00,VWS V14.01,2013-05-29 09:59:00,
2013-05-29 03:04:00,59.7,47.5,29.81,ESE,121,5.8,5.8,64,0.00,,-RA,0.00,VWS V14.01,2013-05-29 10:04:00,
2013-05-29 03:09:00,59.7,47.5,29.81,ESE,116,4.9,4.9,64,0.00,,-RA,0.00,VWS V14.01,2013-05-29 10:09:00,
2013-05-29 03:14:00,59.5,47.8,29.81,ESE,110,4.5,6.7,65,0.00,,-RA,0.00,VWS V14.01,2013-05-29 10:14:00,
2013-05-29 03:19:00,59.7,48.0,29.81,ESE,114,4.5,5.8,65,0.00,,-RA,0.00,VWS V14.01,2013-05-29 10:19:00,
2013-05-29 03:24:00,59.9,48.1,29.81,SE,129,4.5,4.5,65,0.00,,-RA,0.00,VWS V14.01,2013-05-29 10:24:00,
2013-05-29 03:29:00,59.9,48.1,29.81,SSE,148,3.1,6.3,65,0.00,,-RA,0.00,VWS V14.01,2013-05-29 10:29:00,
2013-05-29 03:34:00,59.9,48.1,29.81,SSE,149,4.9,9.6,65,0.00,,-RA,0.00,VWS V14.01,2013-05-29 10:34:00,
2013-05-29 03:39:00,60.1,48.3,29.81,SE,127,3.6,6.9,65,0.00,,-RA,0.00,VWS V14.01,2013-05-29 10:39:00,
2013-05-29 03:44:00,59.9,48.1,29.81,ESE,104,5.8,6.9,65,0.00,,-RA,0.00,VWS V14.01,2013-05-29 10:44:00,
2013-05-29 03:49:00,59.9,48.1,29.81,SE,132,5.8,6.3,65,0.00,,-RA,0.00,VWS V14.01,2013-05-29 10:49:00,
2013-05-29 03:54:00,59.9,48.1,29.81,SE,128,2.7,6.3,65,0.00,,-RA,0.00,VWS V14.01,2013-05-29 10:54:00,
2013-05-29 03:59:00,59.9,48.1,29.81,ESE,120,5.8,7.4,65,0.00,,-RA,0.00,VWS V14.01,2013-05-29 10:59:00,
2013-05-29 04:05:00,59.9,47.7,29.81,ESE,104,6.7,8.7,64,0.00,,OVC060,0.00,VWS V14.01,2013-05-29 11:05:00,
2013-05-29 04:10:00,59.9,47.7,29.81,SE,129,7.4,9.2,64,0.00,,OVC060,0.00,VWS V14.01,2013-05-29 11:10:00,
2013-05-29 04:15:00,59.9,47.3,29.81,SE,127,3.1,7.8,63,0.00,,OVC060,0.00,VWS V14.01,2013-05-29 11:15:00,
2013-05-29 04:20:00,59.9,46.9,29.81,SE,141,5.4,9.2,62,0.00,,OVC060,0.00,VWS V14.01,2013-05-29 11:20:00,
2013-05-29 04:25:00,59.9,48.1,29.81,ESE,123,3.6,9.2,65,0.00,,OVC060,0.00,VWS V14.01,2013-05-29 11:25:00,
2013-05-29 04:30:00,59.4,48.4,29.81,SE,137,6.7,8.7,67,0.00,,OVC060,0.00,VWS V14.01,2013-05-29 11:30:00,
2013-05-29 04:35:00,59.0,48.5,29.81,ESE,103,6.7,9.2,68,0.00,,OVC060,0.00,VWS V14.01,2013-05-29 11:35:00,
2013-05-29 04:40:00,58.5,49.1,29.81,ESE,114,9.2,11.6,71,0.00,,OVC060,0.00,VWS V14.01,2013-05-29 11:40:00,
2013-05-29 04:45:00,58.1,49.5,29.81,SE,131,6.3,9.6,73,0.00,,OVC060,0.00,VWS V14.01,2013-05-29 11:45:00,
2013-05-29 04:50:00,57.9,50.4,29.81,SE,130,0.0,6.3,76,0.00,,OVC060,0.00,VWS V14.01,2013-05-29 11:50:00,
2013-05-29 04:55:00,57.9,51.5,29.81,ESE,123,5.4,5.8,79,0.00,,OVC060,0.00,VWS V14.01,2013-05-29 11:55:00,
2013-05-29 05:00:00,57.6,51.5,29.81,SE,132,5.8,7.8,80,0.00,,OVC060,0.00,VWS V14.01,2013-05-29 12:00:00,
2013-05-29 05:06:00,57.0,51.6,29.81,SE,133,5.4,9.6,82,0.00,,BKN070,0.00,VWS V14.01,2013-05-29 12:06:00,
2013-05-29 05:11:00,57.0,51.9,29.81,SE,134,6.9,9.2,83,0.00,,BKN070,0.00,VWS V14.01,2013-05-29 12:11:00,
2013-05-29 05:16:00,57.0,52.2,29.81,SE,135,4.0,8.3,84,0.00,,BKN070,0.00,VWS V14.01,2013-05-29 12:16:00,
2013-05-29 05:21:00,57.0,52.2,29.81,SE,126,6.7,8.7,84,0.00,,BKN070,0.00,VWS V14.01,2013-05-29 12:21:00,
2013-05-29 05:26:00,56.7,52.2,29.81,ESE,107,8.7,11.0,85,0.00,,BKN070,0.00,VWS V14.01,2013-05-29 12:26:00,
2013-05-29 05:31:00,56.5,52.0,29.81,ESE,121,6.7,10.1,85,0.00,,BKN070,0.00,VWS V14.01,2013-05-29 12:31:00,
2013-05-29 05:36:00,56.7,52.5,29.81,SE,125,9.6,9.6,86,0.00,,BKN070,0.00,VWS V14.01,2013-05-29 12:36:00,
2013-05-29 05:41:00,56.5,51.7,29.81,ESE,102,9.2,10.5,84,0.00,,BKN070,0.00,VWS V14.01,2013-05-29 12:41:00,
2013-05-29 05:46:00,56.3,51.5,29.81,East,98,9.2,11.0,84,0.04,,BKN070,0.04,VWS V14.01,2013-05-29 12:46:00,
2013-05-29 05:51:00,56.5,51.7,29.81,ESE,121,10.5,10.5,84,0.04,,BKN070,0.04,VWS V14.01,2013-05-29 12:51:00,
2013-05-29 05:56:00,56.5,52.0,29.81,SE,136,5.4,12.5,85,0.04,,BKN070,0.04,VWS V14.01,2013-05-29 12:56:00,
2013-05-29 06:01:00,56.5,52.0,29.81,SE,129,11.2,14.8,85,0.04,,FEW075,0.04,VWS V14.01,2013-05-29 13:01:00,
2013-05-29 06:06:00,56.5,52.3,29.81,ESE,110,8.3,9.2,86,0.04,,FEW075,0.04,VWS V14.01,2013-05-29 13:06:00,
2013-05-29 06:12:00,56.3,52.2,29.81,SE,128,7.4,13.0,86,0.04,,FEW075,0.04,VWS V14.01,2013-05-29 13:12:00,
2013-05-29 06:17:00,56.3,52.5,29.81,ESE,116,10.5,11.2,87,0.04,,FEW075,0.04,VWS V14.01,2013-05-29 13:17:00,
2013-05-29 06:22:00,56.3,52.2,29.81,ESE,109,9.6,11.2,86,0.04,,FEW075,0.04,VWS V14.01,2013-05-29 13:22:00,
2013-05-29 06:27:00,56.1,52.0,29.81,East,98,7.4,14.3,86,0.04,,FEW075,0.04,VWS V14.01,2013-05-29 13:27:00,
2013-05-29 06:32:00,56.3,52.2,29.81,ESE,113,8.7,11.2,86,0.04,,FEW075,0.04,VWS V14.01,2013-05-29 13:32:00,
2013-05-29 06:37:00,56.3,51.9,29.81,SSE,158,6.3,10.1,85,0.04,,FEW075,0.04,VWS V14.01,2013-05-29 13:37:00,
2013-05-29 06:42:00,56.5,52.0,29.81,ESE,112,8.3,12.5,85,0.04,,FEW075,0.04,VWS V14.01,2013-05-29 13:42:00,
2013-05-29 06:47:00,56.3,51.2,29.81,SE,133,6.9,10.1,83,0.00,,FEW075,0.04,VWS V14.01,2013-05-29 13:47:00,
2013-05-29 06:52:00,56.3,51.2,29.81,ESE,119,7.8,11.0,83,0.00,,FEW075,0.04,VWS V14.01,2013-05-29 13:52:00,
2013-05-29 06:57:00,56.7,51.9,29.81,ESE,107,11.0,11.0,84,0.00,,FEW075,0.04,VWS V14.01,2013-05-29 13:57:00,
2013-05-29 07:02:00,57.2,52.1,29.81,ESE,119,4.9,10.1,83,0.00,,BKN065,0.04,VWS V14.01,2013-05-29 14:02:00,
2013-05-29 07:07:00,57.4,51.9,29.81,SE,131,7.8,9.2,82,0.00,,BKN065,0.04,VWS V14.01,2013-05-29 14:07:00,
2013-05-29 07:12:00,57.4,51.6,29.81,SE,131,6.3,11.6,81,0.00,,BKN065,0.04,VWS V14.01,2013-05-29 14:12:00,
2013-05-29 07:18:00,57.2,51.4,29.84,ESE,115,9.2,10.1,81,0.00,,BKN065,0.04,VWS V14.01,2013-05-29 14:18:00,
2013-05-29 07:23:00,57.6,51.8,29.84,ESE,118,8.7,11.2,81,0.00,,BKN065,0.04,VWS V14.01,2013-05-29 14:23:00,
2013-05-29 07:28:00,57.4,51.3,29.84,ESE,103,5.8,11.0,80,0.00,,BKN065,0.04,VWS V14.01,2013-05-29 14:28:00,
2013-05-29 07:33:00,57.6,51.5,29.84,ESE,110,5.8,9.2,80,0.00,,BKN065,0.04,VWS V14.01,2013-05-29 14:33:00,
2013-05-29 07:38:00,57.6,51.8,29.84,SE,140,8.3,12.1,81,0.00,,BKN065,0.04,VWS V14.01,2013-05-29 14:38:00,
2013-05-29 07:43:00,58.5,52.0,29.84,ESE,106,6.9,11.2,79,0.00,,BKN065,0.04,VWS V14.01,2013-05-29 14:43:00,
2013-05-29 07:48:00,59.4,51.8,29.84,ESE,111,5.8,9.6,76,0.00,,BKN065,0.04,VWS V14.01,2013-05-29 14:48:00,
2013-05-29 07:53:00,59.7,50.7,29.84,SE,128,10.5,14.3,72,0.00,,BKN065,0.04,VWS V14.01,2013-05-29 14:53:00,
2013-05-29 07:58:00,60.1,50.3,29.84,SE,127,3.6,12.1,70,0.00,,BKN065,0.04,VWS V14.01,2013-05-29 14:58:00,
2013-05-29 08:03:00,60.1,49.1,29.84,SE,140,5.8,15.9,67,0.00,,CLR,0.04,VWS V14.01,2013-05-29 15:03:00,
2013-05-29 08:08:00,61.0,50.0,29.84,SE,138,12.1,14.8,67,0.00,,CLR,0.04,VWS V14.01,2013-05-29 15:08:00,
2013-05-29 08:13:00,60.3,48.9,29.84,SE,126,11.6,14.3,66,0.00,,CLR,0.04,VWS V14.01,2013-05-29 15:13:00,
2013-05-29 08:19:00,60.3,50.1,29.84,ESE,113,8.3,9.2,69,0.00,,CLR,0.04,VWS V14.01,2013-05-29 15:19:00,
2013-05-29 08:24:00,59.5,49.0,29.84,ESE,123,6.9,13.0,68,0.00,,CLR,0.04,VWS V14.01,2013-05-29 15:24:00,
2013-05-29 08:29:00,60.6,50.8,29.84,ESE,115,9.2,10.1,70,0.00,,CLR,0.04,VWS V14.01,2013-05-29 15:29:00,
2013-05-29 08:34:00,61.7,50.2,29.84,SE,131,5.8,10.5,66,0.00,,CLR,0.04,VWS V14.01,2013-05-29 15:34:00,
2013-05-29 08:39:00,61.7,48.1,29.84,SE,128,12.5,14.3,61,0.00,,CLR,0.04,VWS V14.01,2013-05-29 15:39:00,
2013-05-29 08:44:00,61.7,49.0,29.84,SE,139,4.0,8.7,63,0.00,,CLR,0.04,VWS V14.01,2013-05-29 15:44:00,
2013-05-29 08:49:00,61.9,47.9,29.84,SE,130,5.8,9.2,60,0.00,,CLR,0.04,VWS V14.01,2013-05-29 15:49:00,
2013-05-29 08:54:00,61.5,46.6,29.84,SE,132,11.2,11.2,58,0.00,,CLR,0.04,VWS V14.01,2013-05-29 15:54:00,
2013-05-29 08:59:00,61.2,46.3,29.84,ESE,114,9.2,10.5,58,0.00,,CLR,0.04,VWS V14.01,2013-05-29 15:59:00,
2013-05-29 09:05:00,62.2,46.4,29.84,SE,125,3.1,7.8,56,0.00,,CLR,0.04,VWS V14.01,2013-05-29 16:05:00,
2013-05-29 09:10:00,63.3,46.4,29.84,SE,128,6.9,9.2,54,0.00,,CLR,0.04,VWS V14.01,2013-05-29 16:10:00,
2013-05-29 09:15:00,64.2,46.2,29.84,SE,132,6.3,7.8,52,0.00,,CLR,0.04,VWS V14.01,2013-05-29 16:15:00,
2013-05-29 09:21:00,64.9,45.3,29.84,SE,138,3.6,10.1,49,0.00,,CLR,0.04,VWS V14.01,2013-05-29 16:21:00,
2013-05-29 09:26:00,66.2,46.5,29.84,ESE,110,8.3,8.3,49,0.00,,CLR,0.04,VWS V14.01,2013-05-29 16:26:00,
2013-05-29 09:31:00,66.2,46.0,29.84,SE,127,6.9,10.1,48,0.00,,CLR,0.04,VWS V14.01,2013-05-29 16:31:00,
2013-05-29 09:36:00,66.2,46.0,29.84,SE,131,6.7,7.4,48,0.00,,CLR,0.04,VWS V14.01,2013-05-29 16:36:00,
2013-05-29 09:41:00,66.9,46.6,29.84,SE,146,0.0,6.7,48,0.00,,CLR,0.04,VWS V14.01,2013-05-29 16:41:00,
2013-05-29 09:46:00,66.4,45.6,29.84,ESE,107,6.9,7.8,47,0.00,,CLR,0.04,VWS V14.01,2013-05-29 16:46:00,
2013-05-29 09:51:00,67.8,47.4,29.84,ESE,110,4.0,5.8,48,0.00,,CLR,0.04,VWS V14.01,2013-05-29 16:51:00,
2013-05-29 09:56:00,68.9,46.1,29.84,SSW,195,2.7,6.9,44,0.00,,CLR,0.04,VWS V14.01,2013-05-29 16:56:00,
2013-05-29 10:01:00,69.6,45.5,29.84,South,171,5.8,7.4,42,0.00,,CLR,0.04,VWS V14.01,2013-05-29 17:01:00,
2013-05-29 10:06:00,69.6,44.2,29.84,SSE,163,4.0,9.6,40,0.00,,CLR,0.04,VWS V14.01,2013-05-29 17:06:00,
2013-05-29 10:11:00,69.6,44.9,29.84,SE,127,7.8,7.8,41,0.00,,CLR,0.04,VWS V14.01,2013-05-29 17:11:00,
2013-05-29 10:16:00,70.3,44.9,29.84,SSE,165,5.8,9.2,40,0.00,,CLR,0.04,VWS V14.01,2013-05-29 17:16:00,
2013-05-29 10:21:00,70.9,44.0,29.84,SE,139,6.9,11.0,38,0.00,,CLR,0.04,VWS V14.01,2013-05-29 17:21:00,
2013-05-29 10:27:00,71.1,43.5,29.84,SSE,147,5.8,7.4,37,0.00,,CLR,0.04,VWS V14.01,2013-05-29 17:27:00,
2013-05-29 10:32:00,70.3,43.5,29.84,East,98,4.9,7.4,38,0.00,,CLR,0.04,VWS V14.01,2013-05-29 17:32:00,
2013-05-29 10:37:00,70.9,44.7,29.84,SSE,164,6.3,7.4,39,0.00,,CLR,0.04,VWS V14.01,2013-05-29 17:37:00,
2013-05-29 10:42:00,71.6,44.0,29.84,SW,226,9.2,9.2,37,0.00,,CLR,0.04,VWS V14.01,2013-05-29 17:42:00,
2013-05-29 10:47:00,72.5,44.8,29.84,SW,223,5.4,9.2,37,0.00,,CLR,0.04,VWS V14.01,2013-05-29 17:47:00,
2013-05-29 10:52:00,73.4,43.3,29.84,SW,216,7.4,7.4,34,0.00,,CLR,0.04,VWS V14.01,2013-05-29 17:52:00,
2013-05-29 10:57:00,73.6,43.5,29.84,South,175,3.1,6.3,34,0.00,,CLR,0.04,VWS V14.01,2013-05-29 17:57:00,
2013-05-29 11:02:00,73.4,42.6,29.87,West,266,6.9,10.1,33,0.00,,SCT060,0.04,VWS V14.01,2013-05-29 18:02:00,
2013-05-29 11:07:00,72.7,42.0,29.87,SE,146,3.1,7.4,33,0.00,,SCT060,0.04,VWS V14.01,2013-05-29 18:07:00,
2013-05-29 11:12:00,72.5,41.0,29.87,ESE,120,3.6,4.9,32,0.00,,SCT060,0.04,VWS V14.01,2013-05-29 18:12:00,
2013-05-29 11:17:00,72.0,42.1,29.84,ESE,115,0.0,9.6,34,0.00,,SCT060,0.04,VWS V14.01,2013-05-29 18:17:00,
2013-05-29 11:22:00,73.0,42.3,29.84,SE,144,3.6,4.9,33,0.00,,SCT060,0.04,VWS V14.01,2013-05-29 18:22:00,
2013-05-29 11:27:00,74.7,42.9,29.84,West,273,5.4,6.7,32,0.00,,SCT060,0.04,VWS V14.01,2013-05-29 18:27:00,
2013-05-29 11:33:00,74.7,42.0,29.84,SSE,165,3.6,3.6,31,0.00,,SCT060,0.04,VWS V14.01,2013-05-29 18:33:00,
2013-05-29 11:38:00,75.6,42.8,29.84,South,184,0.0,4.0,31,0.00,,SCT060,0.04,VWS V14.01,2013-05-29 18:38:00,
2013-05-29 11:43:00,75.9,43.1,29.84,West,271,8.3,9.2,31,0.00,,SCT060,0.04,VWS V14.01,2013-05-29 18:43:00,
2013-05-29 11:48:00,76.1,43.3,29.84,SE,133,3.6,6.3,31,0.00,,SCT060,0.04,VWS V14.01,2013-05-29 18:48:00,
2013-05-29 11:53:00,76.5,42.8,29.84,SW,222,5.8,6.3,30,0.00,,SCT060,0.04,VWS V14.01,2013-05-29 18:53:00,
2013-05-29 11:58:00,77.2,42.5,29.84,South,179,3.1,8.7,29,0.00,,SCT060,0.04,VWS V14.01,2013-05-29 18:58:00,
2013-05-29 12:03:00,76.8,41.3,29.84,ESE,120,8.7,8.7,28,0.00,,FEW055,0.04,VWS V14.01,2013-05-29 19:03:00,
2013-05-29 12:08:00,75.4,41.0,29.84,ESE,113,6.3,7.4,29,0.00,,FEW055,0.04,VWS V14.01,2013-05-29 19:08:00,
2013-05-29 12:13:00,76.6,42.0,29.84,SSE,157,3.1,5.8,29,0.00,,FEW055,0.04,VWS V14.01,2013-05-29 19:13:00,
2013-05-29 12:18:00,77.5,41.0,29.84,SE,137,3.6,6.9,27,0.00,,FEW055,0.04,VWS V14.01,2013-05-29 19:18:00,
2013-05-29 12:23:00,77.2,40.7,29.84,SW,217,9.2,9.2,27,0.00,,FEW055,0.04,VWS V14.01,2013-05-29 19:23:00,
2013-05-29 12:28:00,76.8,39.4,29.84,SW,223,7.4,7.4,26,0.00,,FEW055,0.04,VWS V14.01,2013-05-29 19:28:00,
2013-05-29 12:34:00,77.9,39.3,29.84,SW,214,5.8,8.3,25,0.00,,FEW055,0.04,VWS V14.01,2013-05-29 19:34:00,
2013-05-29 12:39:00,77.4,38.8,29.84,South,186,4.0,9.6,25,0.00,,FEW055,0.04,VWS V14.01,2013-05-29 19:39:00,
2013-05-29 12:44:00,76.5,38.1,29.84,SW,225,2.7,9.6,25,0.00,,FEW055,0.04,VWS V14.01,2013-05-29 19:44:00,
2013-05-29 12:49:00,77.9,39.3,29.84,WNW,283,13.0,13.0,25,0.00,,FEW055,0.04,VWS V14.01,2013-05-29 19:49:00,
2013-05-29 12:54:00,78.6,38.8,29.84,WSW,245,4.0,5.8,24,0.00,,FEW055,0.04,VWS V14.01,2013-05-29 19:54:00,
2013-05-29 12:59:00,79.5,38.5,29.84,WSW,240,10.1,10.1,23,0.00,,FEW055,0.04,VWS V14.01,2013-05-29 19:59:00,
2013-05-29 13:04:00,79.7,37.5,29.84,South,176,3.6,4.9,22,0.00,,FEW060,0.04,VWS V14.01,2013-05-29 20:04:00,
2013-05-29 13:09:00,80.2,38.0,29.84,South,174,6.7,6.7,22,0.00,,FEW060,0.04,VWS V14.01,2013-05-29 20:09:00,
2013-05-29 13:14:00,80.6,38.3,29.84,WNW,284,6.7,9.2,22,0.00,,FEW060,0.04,VWS V14.01,2013-05-29 20:14:00,
2013-05-29 13:19:00,80.4,38.1,29.84,SW,225,6.9,8.3,22,0.00,,FEW060,0.04,VWS V14.01,2013-05-29 20:19:00,
2013-05-29 13:24:00,80.1,37.8,29.84,WNW,288,7.4,7.4,22,0.00,,FEW060,0.04,VWS V14.01,2013-05-29 20:24:00,
2013-05-29 13:29:00,79.2,38.2,29.84,SW,232,0.0,6.7,23,0.00,,FEW060,0.04,VWS V14.01,2013-05-29 20:29:00,
2013-05-29 13:34:00,78.8,37.9,29.81,WSW,238,5.4,7.4,23,0.00,,FEW060,0.04,VWS V14.01,2013-05-29 20:34:00,
2013-05-29 13:40:00,78.4,37.6,29.81,South,180,3.6,6.3,23,0.00,,FEW060,0.04,VWS V14.01,2013-05-29 20:40:00,
2013-05-29 13:45:00,77.7,37.0,29.81,NE,40,5.8,5.8,23,0.00,,FEW060,0.04,VWS V14.01,2013-05-29 20:45:00,
2013-05-29 13:50:00,77.2,38.7,29.81,WSW,239,6.9,7.8,25,0.00,,FEW060,0.04,VWS V14.01,2013-05-29 20:50:00,
2013-05-29 13:55:00,77.5,37.9,29.81,SW,232,0.0,4.5,24,0.00,,FEW060,0.04,VWS V14.01,2013-05-29 20:55:00,
2013-05-29 14:00:00,79.0,39.2,29.81,WSW,244,7.4,9.6,24,0.00,,FEW060,0.04,VWS V14.01,2013-05-29 21:00:00,
2013-05-29 14:05:00,79.9,38.8,29.81,South,173,3.1,4.0,23,0.00,,FEW060,0.04,VWS V14.01,2013-05-29 21:05:00,
2013-05-29 14:10:00,79.9,37.7,29.81,SW,230,9.2,11.2,22,0.00,,FEW060,0.04,VWS V14.01,2013-05-29 21:10:00,
2013-05-29 14:15:00,79.7,38.7,29.81,WSW,244,11.0,12.5,23,0.00,,FEW060,0.04,VWS V14.01,2013-05-29 21:15:00,
2013-05-29 14:21:00,80.2,38.0,29.81,SW,219,9.2,11.2,22,0.00,,FEW060,0.04,VWS V14.01,2013-05-29 21:21:00,
2013-05-29 14:26:00,80.2,38.0,29.81,SW,220,7.4,11.0,22,0.00,,FEW060,0.04,VWS V14.01,2013-05-29 21:26:00,
2013-05-29 14:31:00,80.2,36.8,29.81,South,173,0.0,5.8,21,0.00,,FEW060,0.04,VWS V14.01,2013-05-29 21:31:00,
2013-05-29 14:36:00,80.1,37.8,29.81,SSW,210,3.6,4.5,22,0.00,,FEW060,0.04,VWS V14.01,2013-05-29 21:36:00,
2013-05-29 14:41:00,81.3,37.7,29.81,West,267,6.7,9.6,21,0.00,,FEW060,0.04,VWS V14.01,2013-05-29 21:41:00,
2013-05-29 14:47:00,81.9,38.1,29.81,SSW,194,3.1,7.4,21,0.00,,FEW060,0.04,VWS V14.01,2013-05-29 21:47:00,
2013-05-29 14:52:00,80.1,36.7,29.81,SW,218,4.5,9.2,21,0.00,,FEW060,0.04,VWS V14.01,2013-05-29 21:52:00,
2013-05-29 14:57:00,80.8,37.2,29.81,SSW,205,0.0,6.7,21,0.00,,FEW060,0.04,VWS V14.01,2013-05-29 21:57:00,
2013-05-29 15:02:00,81.9,36.9,29.81,SSW,208,0.0,4.0,20,0.00,,CLR,0.04,VWS V14.01,2013-05-29 22:02:00,
2013-05-29 15:07:00,82.0,37.0,29.81,West,272,5.8,8.3,20,0.00,,CLR,0.04,VWS V14.01,2013-05-29 22:07:00,
2013-05-29 15:12:00,81.5,37.8,29.81,West,277,8.3,13.9,21,0.00,,CLR,0.04,VWS V14.01,2013-05-29 22:12:00,
2013-05-29 15:17:00,81.1,37.5,29.81,WSW,240,0.0,5.4,21,0.00,,CLR,0.04,VWS V14.01,2013-05-29 22:17:00,
2013-05-29 15:22:00,81.0,37.4,29.81,South,173,0.0,6.3,21,0.00,,CLR,0.04,VWS V14.01,2013-05-29 22:22:00,
2013-05-29 15:27:00,80.8,36.0,29.81,NW,313,11.2,13.9,20,0.00,,CLR,0.04,VWS V14.01,2013-05-29 22:27:00,
2013-05-29 15:32:00,80.6,35.9,29.81,NNW,335,13.0,15.2,20,0.00,,CLR,0.04,VWS V14.01,2013-05-29 22:32:00,
2013-05-29 15:37:00,80.6,37.1,29.81,WSW,239,8.7,11.0,21,0.00,,CLR,0.04,VWS V14.01,2013-05-29 22:37:00,
2013-05-29 15:42:00,81.5,36.6,29.81,West,268,11.6,12.1,20,0.00,,CLR,0.04,VWS V14.01,2013-05-29 22:42:00,
2013-05-29 15:47:00,81.1,36.3,29.81,WSW,245,7.4,10.1,20,0.00,,CLR,0.04,VWS V14.01,2013-05-29 22:47:00,
2013-05-29 15:53:00,81.9,36.9,29.81,WSW,241,7.8,11.0,20,0.00,,CLR,0.04,VWS V14.01,2013-05-29 22:53:00,
2013-05-29 15:58:00,81.3,36.5,29.81,South,190,4.9,4.9,20,0.00,,CLR,0.04,VWS V14.01,2013-05-29 22:58:00,
2013-05-29 16:03:00,81.1,36.3,29.81,SW,224,3.1,6.9,20,0.00,,CLR,0.04,VWS V14.01,2013-05-29 23:03:00,
2013-05-29 16:08:00,82.0,35.8,29.81,WSW,243,8.7,11.2,19,0.00,,CLR,0.04,VWS V14.01,2013-05-29 23:08:00,
2013-05-29 16:13:00,81.7,35.5,29.81,SW,232,6.9,6.9,19,0.00,,CLR,0.04,VWS V14.01,2013-05-29 23:13:00,
2013-05-29 16:18:00,82.4,36.0,29.78,SW,232,8.3,8.3,19,0.00,,CLR,0.04,VWS V14.01,2013-05-29 23:18:00,
2013-05-29 16:23:00,82.8,36.3,29.78,WNW,284,6.9,9.6,19,0.00,,CLR,0.04,VWS V14.01,2013-05-29 23:23:00,
2013-05-29 16:28:00,83.1,36.6,29.78,West,275,4.5,10.1,19,0.00,,CLR,0.04,VWS V14.01,2013-05-29 23:28:00,
2013-05-29 16:33:00,83.1,36.6,29.78,NW,304,6.7,12.5,19,0.00,,CLR,0.04,VWS V14.01,2013-05-29 23:33:00,
2013-05-29 16:38:00,81.9,35.6,29.78,West,280,5.8,8.3,19,0.00,,CLR,0.04,VWS V14.01,2013-05-29 23:38:00,
2013-05-29 16:43:00,81.7,31.2,29.78,WNW,299,4.5,5.8,16,0.00,,CLR,0.04,VWS V14.01,2013-05-29 23:43:00,
2013-05-29 16:48:00,81.7,35.5,29.78,SW,226,5.8,5.8,19,0.00,,CLR,0.04,VWS V14.01,2013-05-29 23:48:00,
2013-05-29 16:53:00,82.6,36.2,29.78,WNW,282,8.3,13.0,19,0.00,,CLR,0.04,VWS V14.01,2013-05-29 23:53:00,
2013-05-29 16:59:00,82.4,36.0,29.78,NNW,334,0.0,7.4,19,0.00,,CLR,0.04,VWS V14.01,2013-05-29 23:59:00,
2013-05-29 17:04:00,82.2,31.6,29.78,WSW,256,4.5,6.7,16,0.00,,CLR,0.04,VWS V14.01,2013-05-30 00:04:00,
2013-05-29 17:09:00,82.0,35.8,29.78,WNW,288,8.7,8.7,19,0.00,,CLR,0.04,VWS V14.01,2013-05-30 00:09:00,
2013-05-29 17:15:00,81.9,35.6,29.78,West,279,4.5,7.8,19,0.00,,CLR,0.04,VWS V14.01,2013-05-30 00:15:00,
2013-05-29 17:20:00,81.7,35.5,29.78,South,187,5.8,7.4,19,0.00,,CLR,0.04,VWS V14.01,2013-05-30 00:20:00,
2013-05-29 17:25:00,82.2,35.9,29.78,WSW,247,4.5,9.2,19,0.00,,CLR,0.04,VWS V14.01,2013-05-30 00:25:00,
2013-05-29 17:30:00,82.6,36.2,29.78,WSW,257,7.4,7.8,19,0.00,,CLR,0.04,VWS V14.01,2013-05-30 00:30:00,
2013-05-29 17:35:00,82.8,36.3,29.78,WSW,243,5.8,6.9,19,0.00,,CLR,0.04,VWS V14.01,2013-05-30 00:35:00,
2013-05-29 17:40:00,82.6,36.2,29.78,SW,230,6.3,7.4,19,0.00,,CLR,0.04,VWS V14.01,2013-05-30 00:40:00,
2013-05-29 17:45:00,82.0,35.8,29.78,West,264,7.4,10.1,19,0.00,,CLR,0.04,VWS V14.01,2013-05-30 00:45:00,
2013-05-29 17:50:00,82.2,35.9,29.78,WNW,286,4.5,4.5,19,0.00,,CLR,0.04,VWS V14.01,2013-05-30 00:50:00,
2013-05-29 17:55:00,82.2,35.9,29.78,SW,227,4.5,8.7,19,0.00,,CLR,0.04,VWS V14.01,2013-05-30 00:55:00,
2013-05-29 18:00:00,81.5,35.3,29.78,WSW,246,4.0,5.8,19,0.00,,CLR,0.04,VWS V14.01,2013-05-30 01:00:00,
2013-05-29 18:05:00,82.4,36.0,29.78,SW,225,4.0,6.3,19,0.00,,CLR,0.04,VWS V14.01,2013-05-30 01:05:00,
2013-05-29 18:10:00,82.6,36.2,29.78,WNW,302,6.9,8.3,19,0.00,,CLR,0.04,VWS V14.01,2013-05-30 01:10:00,
2013-05-29 18:15:00,82.4,36.0,29.78,West,276,10.1,11.6,19,0.00,,CLR,0.04,VWS V14.01,2013-05-30 01:15:00,
2013-05-29 18:20:00,82.6,36.2,29.78,WNW,299,6.3,6.3,19,0.00,,CLR,0.04,VWS V14.01,2013-05-30 01:20:00,
2013-05-29 18:25:00,82.8,36.3,29.78,NW,319,7.4,10.1,19,0.00,,CLR,0.04,VWS V14.01,2013-05-30 01:25:00,
2013-05-29 18:30:00,83.1,36.6,29.78,NW,307,4.9,6.3,19,0.00,,CLR,0.04,VWS V14.01,2013-05-30 01:30:00,
2013-05-29 18:35:00,83.5,36.9,29.78,WNW,296,6.7,7.4,19,0.00,,CLR,0.04,VWS V14.01,2013-05-30 01:35:00,
2013-05-29 18:40:00,83.1,36.6,29.78,WNW,296,5.4,7.4,19,0.00,,CLR,0.04,VWS V14.01,2013-05-30 01:40:00,
2013-05-29 18:45:00,84.4,37.7,29.78,WNW,282,5.4,6.3,19,0.00,,CLR,0.04,VWS V14.01,2013-05-30 01:45:00,
2013-05-29 18:50:00,84.2,37.5,29.78,West,278,4.5,6.9,19,0.00,,CLR,0.04,VWS V14.01,2013-05-30 01:50:00,
2013-05-29 18:56:00,83.7,37.1,29.78,West,263,6.3,7.8,19,0.00,,CLR,0.04,VWS V14.01,2013-05-30 01:56:00,
2013-05-29 19:01:00,84.0,37.4,29.78,WSW,241,0.0,7.8,19,0.00,,CLR,0.04,VWS V14.01,2013-05-30 02:01:00,
2013-05-29 19:06:00,83.1,36.6,29.78,WSW,253,7.4,7.8,19,0.00,,CLR,0.04,VWS V14.01,2013-05-30 02:06:00,
2013-05-29 19:11:00,83.1,36.6,29.78,West,281,5.8,8.7,19,0.00,,CLR,0.04,VWS V14.01,2013-05-30 02:11:00,
2013-05-29 19:16:00,82.0,35.8,29.78,West,266,0.0,4.0,19,0.00,,CLR,0.04,VWS V14.01,2013-05-30 02:16:00,
2013-05-29 19:21:00,80.1,35.4,29.78,West,268,6.3,8.3,20,0.00,,CLR,0.04,VWS V14.01,2013-05-30 02:21:00,
2013-05-29 19:26:00,79.0,34.5,29.78,West,263,6.7,6.7,20,0.00,,CLR,0.04,VWS V14.01,2013-05-30 02:26:00,
2013-05-29 19:31:00,78.3,33.9,29.78,West,271,5.4,5.4,20,0.00,,CLR,0.04,VWS V14.01,2013-05-30 02:31:00,
2013-05-29 19:36:00,77.9,34.9,29.78,West,271,5.4,6.7,21,0.00,,CLR,0.04,VWS V14.01,2013-05-30 02:36:00,
2013-05-29 19:41:00,77.5,34.6,29.78,West,271,4.0,4.0,21,0.00,,CLR,0.04,VWS V14.01,2013-05-30 02:41:00,
2013-05-29 19:46:00,77.2,34.3,29.78,WSW,258,3.1,5.8,21,0.00,,CLR,0.04,VWS V14.01,2013-05-30 02:46:00,
2013-05-29 19:51:00,76.5,33.7,29.78,SW,230,0.0,0.0,21,0.00,,CLR,0.04,VWS V14.01,2013-05-30 02:51:00,
2013-05-29 19:56:00,75.2,33.8,29.78,SW,230,0.0,0.0,22,0.00,,CLR,0.04,VWS V14.01,2013-05-30 02:56:00,
2013-05-29 20:01:00,73.6,35.6,29.78,SW,231,0.0,0.0,25,0.00,,CLR,0.04,VWS V14.01,2013-05-30 03:01:00,
2013-05-29 20:07:00,72.1,40.7,29.78,SW,231,0.0,0.0,32,0.00,,CLR,0.04,VWS V14.01,2013-05-30 03:07:00,
2013-05-29 20:12:00,71.2,40.7,29.78,SW,230,0.0,0.0,33,0.00,,CLR,0.04,VWS V14.01,2013-05-30 03:12:00,
2013-05-29 20:17:00,70.2,40.5,29.78,SW,236,7.8,9.6,34,0.00,,CLR,0.04,VWS V14.01,2013-05-30 03:17:00,
2013-05-29 20:22:00,70.0,40.3,29.78,SSW,201,6.3,6.9,34,0.00,,CLR,0.04,VWS V14.01,2013-05-30 03:22:00,
2013-05-29 20:27:00,70.3,40.7,29.78,SSW,206,3.1,4.5,34,0.00,,CLR,0.04,VWS V14.01,2013-05-30 03:27:00,
2013-05-29 20:32:00,70.2,41.3,29.78,SSW,203,4.5,5.8,35,0.00,,CLR,0.04,VWS V14.01,2013-05-30 03:32:00,
2013-05-29 20:37:00,70.0,41.1,29.78,South,187,3.6,4.0,35,0.00,,CLR,0.04,VWS V14.01,2013-05-30 03:37:00,
2013-05-29 20:42:00,69.3,41.2,29.78,South,185,3.6,4.5,36,0.00,,CLR,0.04,VWS V14.01,2013-05-30 03:42:00,
2013-05-29 20:47:00,68.0,41.5,29.78,South,184,4.0,4.0,38,0.00,,CLR,0.04,VWS V14.01,2013-05-30 03:47:00,
2013-05-29 20:52:00,66.9,42.5,29.78,South,183,2.7,3.1,41,0.00,,CLR,0.04,VWS V14.01,2013-05-30 03:52:00,
2013-05-29 20:57:00,66.4,43.2,29.78,South,184,3.1,3.1,43,0.00,,CLR,0.04,VWS V14.01,2013-05-30 03:57:00,
2013-05-29 21:01:00,65.8,42.7,29.81,South,184,0.0,0.0,43,0.00,,CLR,0.04,VWS V14.01,2013-05-30 04:01:00,
2013-05-29 21:02:00,65.7,42.6,29.81,South,184,3.1,3.6,43,0.00,,CLR,0.04,VWS V14.01,2013-05-30 04:02:00,
2013-05-29 21:03:00,65.7,43.2,29.81,South,184,2.7,3.1,44,0.00,,CLR,0.04,VWS V14.01,2013-05-30 04:03:00,
2013-05-29 21:08:00,65.1,43.3,29.81,South,184,3.6,4.0,45,0.00,,CLR,0.04,VWS V14.01,2013-05-30 04:08:00,
2013-05-29 21:09:00,64.8,43.0,29.81,South,183,4.0,4.5,45,0.00,,CLR,0.04,VWS V14.01,2013-05-30 04:09:00,
2013-05-29 21:13:00,64.4,42.6,29.81,SSE,148,5.8,6.7,45,0.00,,CLR,0.04,VWS V14.01,2013-05-30 04:13:00,
2013-05-29 21:18:00,63.9,43.3,29.81,SE,136,4.0,5.4,47,0.00,,CLR,0.04,VWS V14.01,2013-05-30 04:18:00,
2013-05-29 21:23:00,63.9,43.3,29.81,SE,136,0.0,0.0,47,0.00,,CLR,0.04,VWS V14.01,2013-05-30 04:23:00,
2013-05-29 21:28:00,63.3,43.8,29.81,SE,136,4.0,4.0,49,0.00,,CLR,0.04,VWS V14.01,2013-05-30 04:28:00,
2013-05-29 21:33:00,63.3,44.4,29.81,SE,136,3.1,4.0,50,0.00,,CLR,0.04,VWS V14.01,2013-05-30 04:33:00,
2013-05-29 21:38:00,62.6,43.2,29.81,SE,127,5.4,9.2,49,0.00,,CLR,0.04,VWS V14.01,2013-05-30 04:38:00,
2013-05-29 21:43:00,62.4,44.1,29.81,SE,129,0.0,4.0,51,0.00,,CLR,0.04,VWS V14.01,2013-05-30 04:43:00,
2013-05-29 21:48:00,61.9,44.6,29.81,SE,129,3.1,3.6,53,0.00,,CLR,0.04,VWS V14.01,2013-05-30 04:48:00,
2013-05-29 21:53:00,61.7,44.4,29.81,SE,129,4.0,4.5,53,0.00,,CLR,0.04,VWS V14.01,2013-05-30 04:53:00,
2013-05-29 21:58:00,61.7,44.9,29.81,SE,128,4.5,5.4,54,0.00,,CLR,0.04,VWS V14.01,2013-05-30 04:58:00,
2013-05-29 22:03:00,61.3,44.6,29.81,SE,127,2.7,4.5,54,0.00,,CLR,0.04,VWS V14.01,2013-05-30 05:03:00,
2013-05-29 22:08:00,60.8,44.5,29.81,SE,125,4.5,4.9,55,0.00,,CLR,0.04,VWS V14.01,2013-05-30 05:08:00,
2013-05-29 22:13:00,60.4,44.7,29.81,ESE,119,4.9,5.4,56,0.00,,CLR,0.04,VWS V14.01,2013-05-30 05:13:00,
2013-05-29 22:19:00,60.1,44.8,29.81,ESE,119,3.1,4.0,57,0.00,,CLR,0.04,VWS V14.01,2013-05-30 05:19:00,
2013-05-29 22:24:00,59.7,45.4,29.81,ESE,119,3.1,3.6,59,0.00,,CLR,0.04,VWS V14.01,2013-05-30 05:24:00,
2013-05-29 22:29:00,59.2,45.3,29.81,ESE,119,3.1,3.6,60,0.00,,CLR,0.04,VWS V14.01,2013-05-30 05:29:00,
2013-05-29 22:34:00,59.2,45.8,29.81,ESE,119,3.1,4.0,61,0.00,,CLR,0.04,VWS V14.01,2013-05-30 05:34:00,
2013-05-29 22:39:00,59.2,46.2,29.81,ESE,119,3.1,3.6,62,0.00,,CLR,0.04,VWS V14.01,2013-05-30 05:39:00,
2013-05-29 22:44:00,59.2,46.2,29.81,ESE,119,3.6,3.6,62,0.00,,CLR,0.04,VWS V14.01,2013-05-30 05:44:00,
2013-05-29 22:49:00,59.0,46.4,29.84,ESE,119,3.1,4.5,63,0.00,,CLR,0.04,VWS V14.01,2013-05-30 05:49:00,
2013-05-29 22:54:00,59.0,46.4,29.84,ESE,119,2.7,4.0,63,0.00,,CLR,0.04,VWS V14.01,2013-05-30 05:54:00,
2013-05-29 22:59:00,58.8,46.7,29.84,ESE,119,3.6,4.0,64,0.00,,CLR,0.04,VWS V14.01,2013-05-30 05:59:00,
2013-05-29 23:04:00,58.6,46.5,29.81,ESE,119,0.0,0.0,64,0.00,,CLR,0.04,VWS V14.01,2013-05-30 06:04:00,
2013-05-29 23:09:00,58.5,46.3,29.81,ESE,120,0.0,0.0,64,0.00,,CLR,0.04,VWS V14.01,2013-05-30 06:09:00,
2013-05-29 23:14:00,58.8,47.1,29.81,ESE,120,3.6,3.6,65,0.00,,CLR,0.04,VWS V14.01,2013-05-30 06:14:00,
2013-05-29 23:19:00,58.3,45.8,29.81,ESE,121,4.0,4.5,63,0.00,,CLR,0.04,VWS V14.01,2013-05-30 06:19:00,
2013-05-29 23:25:00,58.5,46.8,29.81,ESE,120,5.8,5.8,65,0.00,,CLR,0.04,VWS V14.01,2013-05-30 06:25:00,
2013-05-29 23:30:00,58.8,47.1,29.81,ESE,120,4.9,5.8,65,0.00,,CLR,0.04,VWS V14.01,2013-05-30 06:30:00,
2013-05-29 23:35:00,58.6,46.1,29.84,ESE,120,4.0,4.0,63,0.00,,CLR,0.04,VWS V14.01,2013-05-30 06:35:00,
2013-05-29 23:40:00,58.3,46.2,29.84,ESE,119,0.0,3.1,64,0.00,,CLR,0.04,VWS V14.01,2013-05-30 06:40:00,
2013-05-29 23:45:00,57.9,46.6,29.84,ESE,120,0.0,0.0,66,0.00,,CLR,0.04,VWS V14.01,2013-05-30 06:45:00,
2013-05-29 23:50:00,58.1,47.2,29.84,ESE,119,3.6,4.0,67,0.00,,CLR,0.04,VWS V14.01,2013-05-30 06:50:00,
2013-05-29 23:55:00,57.9,46.6,29.84,ESE,119,0.0,0.0,66,0.00,,CLR,0.04,VWS V14.01,2013-05-30 06:55:00,